Regional Weather Roundup
Issued by NWS Newport/Morehead, NC

Current Version | Previous Version | Graphics & Text | Print | Product List | Glossary On
Versions: 1 2 3 4 5 6 7 8 9 10 11 12 13 14 15 16 17 18 19 20 21 22 23 24 25 26 27 28 29 30 31 32 33 34 35 36 37 38 39 40 41 42 43 44 45 46 47 48 49 50
000 ASUS42 KMHX 272012 RWRMHX WEATHER ROUNDUP FOR EASTERN NORTH CAROLINA NATIONAL WEATHER SERVICE NEWPORT/MOREHEAD CITY NC 400 PM EDT FRI MAR 27 2015 NOTE: "FAIR" INDICATES FEW OR NO CLOUDS BELOW 12,000 FEET WITH NO SIGNIFICANT WEATHER AND/OR OBSTRUCTIONS TO VISIBILITY NCZ015>017-031-032-045>047-102-103-272100- NORTH COAST CITY SKY/WX TMP DP RH WIND PRES REMARKS EDENTON RAIN 44 41 89 NE13 29.75R ELIZABETH CITY CLOUDY 44 41 89 N20G25 29.74R KITTY HAWK CLOUDY 42 41 97 N10G18 29.69F MANTEO CLOUDY 42 41 96 N20G26 29.71F $$ NCZ045>047-081-094-103-104-272100- CENTRAL COAST CITY SKY/WX TMP DP RH WIND PRES REMARKS FRISCO CLOUDY 44 41 89 NE20G31 29.69F SWANQUARTER N/A 46 N/A N/A NW5G18 29.71R $$ NCZ095-097-098-100-101-272100- SOUTHERN COAST CITY SKY/WX TMP DP RH WIND PRES REMARKS BEAUFORT CLOUDY 47 46 97 N16 29.71R CEDAR ISLAND N/A 48 N/A N/A NE20G29 29.74S JACKSONVILLE CLOUDY 49 46 90 NE10G22 29.66F PINEY ISLAND CLOUDY N/A N/A N/A N17G25 29.73R WILMINGTON CLOUDY 51 49 92 N13 29.70R $$ NCZ011>013-027>030-043-044-078>080-089-090>093-098-272100- COASTAL PLAIN CITY SKY/WX TMP DP RH WIND PRES REMARKS AHOSKIE LGT RAIN 42 39 90 N7 29.79R CLINTON RAIN 47 46 99 NE9G17 29.71F ELIZABETHTOWN LGT RAIN 48 47 98 NE5 29.69F GOLDSBORO LGT RAIN 46 46 100 N13 29.72R GREENVILLE LGT RAIN 45 45 100 NE13G18 29.76S HAVELOCK LGT RAIN 48 45 89 NE12G22 29.70S KENANSVILLE LGT RAIN 47 46 95 N10 29.73R VSB 1 KINSTON HVY RAIN 48 45 87 N10G21 29.73S NEW BERN HVY RAIN 47 44 90 NE13 29.70F FOG RICHLANDS CLOUDY 46 43 87 N10 29.69S ROCKY MOUNT CLOUDY 45 42 89 N13 29.77R WASHINGTON LGT RAIN 46 44 93 NE10 29.70F WHITEVILLE CLOUDY 50 48 92 N6 29.68F $$ AMZ130-135-150-152-154-156-158-170-250-252-270-ANZ085-086-088-633-658-670-272100- MARINE OBSERVATIONS STATION/POSITION TIME TEMP WIND PRES WAVE SWELL AIR SEA DIR/SP/G HT/PER HT/PER (UTC) (F) (DEG/KT/KT) (MB) (FT/S) (FT/S) CHESAPEAKE LIGHT 1900 41 10/ 15/ 16 1008.2 64 E VA BEACH 1950 44 52 360/ 23/ 29 1004.7 11/ 8 2/16 DUCK 1900 10/ 16/ 19 N/A 2 E DUCK 1911 42 N/A 6/ 7 2/11 10 NE DUCK NOT AVBL OREGON INLET 1900 360/ 14/ 23 N/A HATTERAS CG 1900 47 59 10/ 24/ 32 1005.3 CAPE LOOKOUT 2000 48 10/ 14/ 18 1004.8 BEAUFORT LAB 1900 49 58 30/ 13/ 21 1004.7 27 SE WRIGHTSVLE NOT AVBL 5 SE WRIGHTSVLE 1900 55 58 40/ 19/ 23 1004.1 225 S CAPE HAT 1950 71 69 220/ 16/ 19 1006.7 11/ 8 10/ 8 41 SE CHARLESTON 1950 69 70 220/ 21/ 23 1002.7 7/ 6 2/11 $$

USA.gov is the U.S. government's official web portal to all federal, state and local government web resources and services.